Weather in Radashkovichy

Belarus     54°09′22″N   27°14′32″E
temp.,
°C
wind,
m/s
gust,
m/s
humid.,
%
clouds,
%
prec.,
mm/h
press.,
hPa
HPBL,
m
21 april, wed
wed2100:00+3ese249510 0.0 101277
03:00+2ese119434 0.0 101110
06:00+2se009373 0.0 101010
09:00+6ssw117492 0.0 1010253
12:00+9sw336116 0.0 1009999
15:00+11wsw3458100 0.1 10081316
18:00+11wsw356292 0.3 10071127
21:00+8ssw22798 1.4 100824
22 april, thu
thu2200:00+6sw348283 0.0 100852
03:00+7sw227595 0.0 100817
06:00+6s358594 0.0 1008104
09:00+9sw597793 0.1 1008450
12:00+12sw69609 1.3 10081428
15:00+12wsw8106260 2.4 10091618
18:00+9sw586289 0.2 10091539
21:00+6sw4962100 0.2 1011362
23 april, fri
fri2300:00+4sw5107260 0.0 1011546
03:00+2sw511825 0.0 1012418
06:00+1ssw511906 0.0 1012436
09:00+4sw796951 0.0 10121090
12:00+5wsw686585 0.2 10131360
15:00+6wsw6759100 0.9 10131498
18:00+6wsw5759100 0.8 10131331
21:00+3w4980100 1.1 1013351
24 april, sat
sat2400:00+1w499274 0.0 1014371
03:000w489890 0.1 1013490
06:000wsw4898100 0.5 1012491
09:00+1wnw5994100 0.9 1013690
12:00+2wnw61094100 0.6 1013729
15:00+4wnw6870100 1.4 10131294
18:00+5wnw5968100 0.7 10131302
21:00+1w39855 0.9 1014213
25 april, sun
sun2500:00−1wsw39876 0.0 1013227
03:00−2wsw5119124 0.0 1013363
06:00−1sw61396100 0.9 1010721
09:00+1wnw61197100 2.5 1010716
12:00+2wnw71196100 0.9 1011778
15:00+4wnw7107696 1.3 10111199
18:00+4wnw6977100 0.4 10111171
21:00+1w5118960 0.6 1012461